Weather in Donskoe

Russia / Stavropol Krai     45°27′17″N   41°58′32″E
temp.,
°C
wind,
m/s
gust,
m/s
humid.,
%
clouds,
%
prec.,
mm/h
press.,
hPa
HPBL,
m
25 july, sun
sun2500:00+23e354615 0.0 101387
03:00+23ne3544100 0.0 1013122
06:00+22ene2646100 0.0 1014194
09:00+27ene583376 0.0 1014971
12:00+27e5740100 0.0 1015680
15:00+28ene574285 0.0 1015932
18:00+29e463661 0.0 10151754
21:00+25e4849100 0.0 1016170
26 july, mon
mon2600:00+24ene4948100 0.1 1016211
03:00+23e46510 0.1 101686
06:00+23ese49521 0.0 1016216
09:00+30ese812260 0.0 10161592
12:00+33e9112133 0.0 10152365
15:00+33e992631 0.0 10142600
18:00+29e61040100 0.1 10151534
21:00+26se51247100 0.2 1016695
27 july, tue
tue2700:00+21ese5146977 1.0 1016343
03:00+20ene477289 1.6 1016117
06:00+20e41071100 0.1 1017224
09:00+23e81460100 0.5 10171113
12:00+26ese101445100 0.2 10171611
15:00+24ese91346100 0.3 10181098
18:00+21ese61160100 0.0 1019651
21:00+18sse41074100 0.0 1020295
28 july, wed
wed2800:00+17sse3669100 0.0 1020159
03:00+16se37793 0.0 1019163
06:00+17se28752 0.0 1019212
09:00+25se44415 0.0 10191037
12:00+29e45321 0.0 10171975
15:00+31e45269 0.0 10163055
18:00+29ene55268 0.0 10162713
21:00+22e33390 0.0 101627
29 july, thu
thu2900:00+20s33515 0.0 101623
03:00+19se11535 0.0 101511
06:00+20ese11535 0.0 101511
09:00+28e33305 0.0 1014826
12:00+32se43224 0.0 10132698
15:00+33se43210 0.0 10122714
18:00+31sse43230 0.0 10111875
21:00+25s44350 0.0 101244